Location: Malmö
(55.6090°N, 13.0007°E)
Time: 01:07:32
(UTC+01:00)

ISS - Pass Details

Date: 27 January 2021
Orbit: 417 x 422 km, 51.6° (Epoch: 06 March)

Event Time Altitude Azimuth Distance (km) Brightness Sun altitude
Rises 17:58:45 0° 248° (WSW) 2,371 2.1 -11.9°
Reaches altitude 10° 18:00:55 10° 240° (WSW) 1,508 0.4 -12.2°
Maximum altitude 18:04:06 39° 171° (S) 655 -2.8 -12.7°
Enters shadow 18:06:09 19° 110° (ESE) 1,093 -2.1 -13.0°
